Location: Burleson Alternative School
(32.5290°N, 97.3406°W)
Time: 03:50:35
(UTC+00:00)

Courier 1B Rocket - Pass Details

Date: 20 November 2024
Orbit: 920 x 1201 km, 28.2° (Epoch: 03 December)

Event Time Altitude Azimuth Distance (km) Brightness Sun altitude
Rises 01:12:09 0° 268° (W) 3,708 9.5 -22.2°
Reaches altitude 10° 01:15:39 10° 251° (WSW) 2,709 8.4 -22.9°
Maximum altitude 01:20:06 19° 208° (SSW) 2,055 7.1 -23.8°
Drops below altitude 10° 01:24:27 10° 163° (SSE) 2,617 7.2 -24.7°
Enters shadow 01:25:43 - 156° (SSE) 2,943 7.4 -25.0°
